TIMESTAMP,CO2_1_1_1,H2O_1_1_1,TAU_1_1_1,TAU_SSITC_TEST_1_1_1,H_1_1_1,H_SSITC_TEST_1_1_1,LE_1_1_1,LE_SSITC_TEST_1_1_1,FC_1_1_1,FC_SSITC_TEST_1_1_1,WD_0_0_1,WS_0_0_1,WS_MAX_0_0_1,U_SIGMA_0_0_1,V_SIGMA_0_0_1,W_SIGMA_0_0_1,USTAR_0_0_1,MO_LENGTH_0_0_1,ZL_0_0_1,FETCH_MAX_0_0_1,FETCH_70_0_0_1,FETCH_80_0_0_1,FETCH_90_0_0_1,PA_0_0_1,RH_0_0_1,TA_0_0_1,VPD_0_0_1,T_SONIC_0_0_1,T_SONIC_SIGMA_0_0_1
[yyyymmddHHMMSS],[mmolCO2 mol-1],[mmolH2O mol-1],[kg m-1 s-2],[#],[W m-2],[#],[W m-2],[#],[umolCO2 m-2 s-1],[#],[Decimal degrees],[m s-1],[m s-1],[m s-1],[m s-1],[m s-1],[m s-1],[m],[#],[m],[m],[m],[m],[kPa],[%],[deg C],[hPa],[deg C],[deg C]
20220530003000,413.94391791172632,18.734220344917414,0.68232424351062504,0,-29.563594371439525,0,41.506327038412358,0,2.2628288607940572,0,159.64849938491864,3.5025676810212540,10.680457111863380,1.7868125895919897,1.3742318703912053,0.99741953683658935,0.79238002565462551,1391.0306940968649,1.3658936557353155E-002,104.15962765188671,190.43701935704271,227.90447387696926,285.30935716527580,92.532518595703124,68.288965517241380,21.387586206896572,8.0520481354744646,22.180409901936798,0.25332842290364510
20220530010000,414.77203106715081,18.924685884676290,0.32726238486784698,0,-40.289219071756563,0,27.474708000899362,0,3.3636881092906212,0,162.23252026905425,3.0219337706568301,8.7916448759049839,1.3517291444102968,1.0155193031681991,0.77873821717145586,0.54795989677970292,337.74073488515893,5.6256169414863499E-002,94.523703475635955,172.81947674246499,206.82077495048776,258.91506799204979,92.599426148220488,71.942999999999998,20.715333333333319,6.8360643571497626,21.622108484903947,0.20396599771855647
20220530013000,415.56078221671055,18.978794858891270,0.44413031541391690,0,-33.395700227132316,0,17.255075468462607,0,5.2774413708684200,0,152.23436706577161,3.3620929609367485,9.1263618829713415,1.4223528086303627,1.1212983586982153,0.88815680562532529,0.63778690277024308,642.48571097733736,2.9572642123196099E-002,96.073510208080648,175.65301773487943,210.21179982194039,263.16022873745885,92.599945502614744,74.495333333333335,20.196666666666658,6.0184745174200547,21.133006489319996,0.16383962848596620
20220530020000,415.79875018767285,19.048256564859710,0.70309745552635194,0,-44.505747576304408,0,16.562134598822961,0,8.5129605609586729,0,152.55305582773943,3.5573455954870070,10.091567871958436,1.6851089059193072,1.2415878720892037,1.0254435622059264,0.80217100424950138,958.95627493473557,1.9813207855898431E-002,102.88191921428148,188.10096082889496,225.10880845644959,281.80951580451227,92.565436124782977,76.304666666666662,19.862000000000023,5.4768681515889561,20.819721726311627,0.13961653196379556
20220530023000,416.77517958059792,19.051059580232046,0.26244323565938238,0,-37.251828907256986,0,11.742415409658353,0,5.6044221188073697,0,156.35719407471603,2.4431838746880530,8.3310174079426602,1.1641833489750040,0.90320235189861875,0.66695695467704230,0.48958965111916541,260.63170344093339,7.2899803627711562E-002,97.778290209179374,178.76989928858242,213.94191097906634,267.82988527508843,92.645116296875003,78.049333333333337,19.514000000000010,4.9651990347024029,20.511791687011680,0.18148564167695808
20220530030000,417.68726998904259,19.041209795248239,0.24296511644752591,0,-33.599877862075935,0,4.3553633475887175,0,4.1751894699788945,0,148.64324183649836,2.9188010708177368,7.5144002555028715,1.1471693636785170,0.88267602736956197,0.66939483204586359,0.47060665137173868,256.71597883534207,7.4011754493033030E-002,94.457286326731563,172.69804501160459,206.67545218274466,258.73314113146239,92.687757387803828,80.218999999999994,19.072666666666692,4.3531576041860971,20.075142810397665,0.17938817419011033
20220530033000,419.29847634993774,18.978283791003687,0.25654766468869727,0,-31.891335125304870,0,2.5783845795009745,1,2.9501018886469992,0,143.24869102764438,2.6942891398149396,6.2925014348522925,1.0235268981187395,0.77361041397460417,0.63489561087889124,0.48309744101922086,292.62099802492958,6.4930405296414556E-002,100.62846075410694,183.98092005998214,220.17817192915609,275.63694396295574,92.707678574869789,82.590000000000003,18.557000000000016,3.7098848269963289,19.564824016994862,0.22301666754585914
20220530040000,420.74045787725510,18.861399000675796,0.35372306720020569,0,-39.204620466187663,0,5.4840840868558702,1,4.3340751654253769,0,139.82502717352594,3.1922668815147333,7.6287681979913247,1.1969820884311091,0.89510723466524977,0.74484309338013133,0.56689774440289709,384.54155181925279,4.9409484905107541E-002,100.64839342039554,184.01736333115556,220.22178521700931,275.69154262400701,92.679294239366328,84.400000000000006,18.108000000000004,3.2318801810078868,19.095269015842064,0.17264985098367733
20220530043000,421.93879179125713,18.745435894822940,0.39140148271696568,0,-44.038982132190519,0,-0.52731597868098146,2,5.0401326571899858,0,138.98678313317018,3.4765726070461058,8.7984567255883235,1.3184006779475248,1.0127951311863559,0.78824261373472004,0.59602954014727616,397.82029308486671,4.7760258413832961E-002,100.12469348742353,183.05987282815579,219.07591363140531,274.25704737289965,92.669115884114589,85.519999999999996,17.798666666666691,2.9420355232099449,18.773338727315263,0.14546337851416610
20220530050000,422.95098569073690,18.631103636768483,0.45483673771271776,0,-42.916130284951301,0,-1.8141990593908970,0,5.1165417439572884,0,144.13391174924777,3.7685575911652873,9.7653025938737787,1.4655585361675818,1.1843949068434061,0.81705441379695243,0.64233005016958866,510.88303816876009,3.7190508551829676E-002,103.29057797024117,188.84811936981461,226.00296640297643,282.92889544892205,92.656226287326405,86.046666666666667,17.601999999999975,2.8001002956069012,18.567881628248415,0.15986089016773869
20220530053000,423.88394666454633,18.567630121270398,0.58982903962133959,0,-47.952816486679922,0,-4.4605884250824017,1,5.3075113323085743,0,147.04638997560039,4.1032135220022381,10.753881977412304,1.5838031766327321,1.3005658509706148,0.99921888471466314,0.73158237782253810,675.36211433830329,2.8133055729096607E-002,97.574645408017076,178.39757164287963,213.49632988096766,267.27207061484546,92.625955423828131,85.696666666666673,17.607333333333315,2.8713027464205925,18.550906622992670,0.14582378308142682
20220530060000,425.41419250293876,18.470884561090433,0.82364822797199067,0,-49.156503639291252,0,3.1633906821250184,0,5.7681471368874906,0,154.29420068099961,4.2614926975082552,10.644831802791449,1.6801726426920049,1.5551000801354331,1.1434491492966197,0.86475226990978260,1087.9610939580527,1.7463859788291805E-002,100.13704785063273,183.08246054432428,219.10294535867578,274.29088788774078,92.615342887586820,84.496666666666670,17.746333333333325,3.1395877103671799,18.658921194288496,0.14321440041559610
20220530063000,426.49493266767649,18.463865152415625,0.82537725520933647,0,-64.298711210932311,0,2.7093638645085458,0,9.8376374520456231,0,159.01518407747440,3.7779537821221769,11.910002294407825,1.7272568078083030,1.5669158658094036,1.1061842016487926,0.86593967740041433,835.16121933248940,2.2750098496175302E-002,102.93973599141279,188.20666833720628,225.23531334582393,281.96788491439270,92.612221690972220,83.513333333333335,17.925666666666643,3.3766375100069674,18.899162599351655,0.24696703789743851
20220530070000,427.27845156236214,18.380020970071588,0.75341366597793680,0,-71.880957467952015,0,6.0420051422457774,0,10.079941873886089,0,165.75120744270561,3.6390947718276605,10.405465848049616,1.7390104438307292,1.4002018973243320,1.1258720549956973,0.82757033956390580,652.08336306754302,2.9137378863064129E-002,97.883074400019609,178.96147820864198,214.17118201643868,268.11690540758764,92.611493603298612,82.213333333333338,18.102666666666664,3.6836611976330325,19.004278896755693,0.18154338010357821
20220530073000,429.36800962905346,18.307226590047129,0.36712530901314971,0,-47.203918323780769,0,0.97812168610326256,0,6.0306458638795259,0,163.08542306797509,3.2942514344526090,8.4320867255575198,1.3250702642551366,1.2267389033332321,0.93008426583077686,0.57734549686132941,337.14959648795883,5.6354805694327971E-002,85.503853502886642,156.32831425867735,187.08506535906247,234.20830150808067,92.611341252821177,83.659999999999997,17.762333333333345,3.3123590129779861,18.668408923679010,0.18603950941395203
20220530080000,430.30355319673725,18.337597532027537,0.44585858037393700,0,-63.311178995603306,0,-8.0930294065198222E-002,2,7.7060079706242028,0,160.88152669252577,3.0498169738583374,7.5553887780170887,1.2682642643627799,1.0247775501891667,0.84897500559533601,0.63613244548154169,336.18466177706699,5.6516558190270461E-002,99.397855314448037,181.73098083481096,217.48556931912248,272.26612501104285,92.587891581380205,84.753333333333330,17.578666666666663,3.0551407859604773,18.542967067294683,0.17498897212125489
20220530083000,430.70954041038897,18.331115535485083,0.42500141661351698,0,-70.064051553694384,0,-2.4584575575524448,0,8.3155375226438171,0,163.86096214347469,3.0692978228863148,7.8150762793937139,1.2612341586669971,1.0100164356617203,0.82707583644112592,0.62099673165067160,282.59191301226122,6.7234761948674795E-002,99.561191438744757,182.02961136341037,217.84295379055470,272.71352796049183,92.579732130859384,85.243333333333339,17.480333333333306,2.9386586168655437,18.450956179300988,0.19372497378237657
20220530090000,431.66650391807690,18.333404119933007,0.33176052267515682,0,-59.426128236525145,0,-3.9260248713039370,0,7.4381421223264308,0,164.77889440347181,2.6900971256963078,6.7210199814738401,1.0661273413684433,0.97004999943261416,0.77782253422156145,0.54842925107601659,229.55616714979678,8.2768414527506717E-002,94.677541346871067,173.10074143515530,207.15737695163321,259.33645375483741,92.615093718315975,86.033333333333331,17.342333333333329,2.7571943498459768,18.303175187004967,0.19094658890553309
20220530093000,432.54777048629887,18.391321527543287,0.28225621609690377,0,-63.985457191984885,0,-6.0011006761848593,0,9.1608911777530739,0,165.21418074391823,2.5276898924635658,6.8146871153112754,1.0149919358646984,0.85946674807634571,0.68858024396516404,0.50572157508824089,167.19167038340052,0.11364202508671388,97.818373848656265,178.84318496556727,214.02961521699413,267.93968057361059,92.631021049262159,86.950000000000003,17.227333333333320,2.5575656644085303,18.198637617323129,0.20088264312198195
20220530100000,431.74745419472544,18.552349553444394,0.22286294988205418,0,-53.990823975903730,0,-4.2989256270193614,0,6.4759053736976808,0,159.79913261753609,2.8394394872379229,6.8447420242521186,1.0267604889909601,0.94598081873371453,0.68132060187740495,0.44952496697543359,139.12973263471187,0.13656318919180929,89.779407910273378,164.14539133351892,196.44011010830491,245.91970742413835,92.602320919053838,87.206666666666663,17.313666666666677,2.5209910187628815,18.327563891092950,0.20226114205126319
20220530103000,431.45501139538527,18.639505543047044,0.47637117907522208,0,-77.856075464067942,0,-5.1157712319409674,0,11.256499588845262,0,168.44478970861536,3.2300825439885115,8.5301787096394470,1.3214508255780575,1.1044923120046557,0.85846184070863574,0.65730127651415460,301.70008159727871,6.2976449656258149E-002,101.13225340884895,184.90201370927673,221.28048577676111,277.01691009483761,92.628642166232638,86.819999999999993,17.462666666666678,2.6217531189609029,18.468747650146497,0.21102041302455254
20220530110000,430.21467641210876,18.772279629515559,0.50750501356680466,0,-55.701556606775789,0,8.7153304075747879,2,7.1127142076301872,0,163.30047569752611,2.9462362449961459,7.9694538528105090,1.2812069868307909,1.1709585733590442,0.91857091399202340,0.67884367363047871,464.45100951870279,4.0908512653873123E-002,98.306122866719321,179.73494573015725,215.09682509333103,269.27570069905352,92.602130240017360,86.060000000000002,17.709999999999980,2.8165398708877523,18.700899812486455,0.16910681788401891
20220530113000,428.51101516805687,18.892472236276923,0.32421388184655264,0,-39.245468629476683,0,6.7934764127648073,1,3.0516382510752762,0,167.24863339206823,2.8749361511371552,7.3395891413975587,1.1779441151973105,1.0198878305393979,0.78422896446910506,0.54269504828789850,336.81377392558920,5.6410994653079680E-002,93.270710335279944,170.52860566022858,204.07918736168924,255.48292565949222,92.603235847873265,86.006666666666675,17.821333333333314,2.8472165396875107,18.826286888970287,0.15252989175790155
20220530120000,426.58428249719395,19.016424921149937,0.29588389181115715,0,-34.642361829050685,0,5.3228404275450112,0,3.8886728827142751,0,169.56053931795344,2.8020266513676435,7.3364283931599612,1.1598806070161736,0.99835909823467583,0.76727777069069103,0.51852882699466829,332.92794379222676,5.7069406020954179E-002,91.518971593918266,167.32586855260286,200.24632903433223,250.68464185715609,92.637913928153480,85.563333333333333,18.013333333333321,2.9731262609809734,19.014783430730063,0.15573901140193203
20220530123000,424.53487512911636,19.120947648686045,0.42836122670313592,0,-45.741823034123271,0,19.846609111150293,0,8.0269169694949998,0,182.61261403741011,3.1360696995311725,8.9788275421450177,1.3224603588958959,1.1541807527274184,0.92056490568526661,0.62412525131353891,439.78164193449794,4.3203258590839275E-002,91.754795455816705,167.75702978431633,200.76231890857815,251.33059995012607,92.663600131944435,84.576666666666668,18.289666666666676,3.2319359171375619,19.288159192403157,0.15064287186497780
20220530130000,422.46191234089571,19.287876835127733,0.35948331292354929,0,-42.031377745216290,1,15.073583415537426,1,7.4016182125751238,1,187.50258738737233,2.8585612705307661,7.7654311186032725,1.2608142922682382,1.0967075844493628,0.81803213293602783,0.57180990367364870,368.26187746542962,5.1593719476932864E-002,94.024265065764880,171.90634404150967,205.72798832479023,257.54702881145482,92.730875681857640,84.026666666666671,18.543999999999983,3.4009769113547872,19.564537529839413,0.17029033094475915
20220530133000,419.91341398114253,19.435891482305838,0.31005803289125805,0,-20.458752909155152,0,31.745432425814194,0,1.1654482165257298,1,187.21130281754941,2.6623508960225624,7.2158586991615152,1.1392770606089810,1.0387171806799635,0.79033660675827377,0.53132729953944147,607.16075213607985,3.1293195308088072E-002,91.137041376901692,166.62757830550146,199.41065395436951,249.63847582185520,92.762714096488153,82.656666666666666,18.934666666666658,3.7839821204787336,19.938052504830239,0.14327618420068444
20220530140000,417.63189487542735,19.620634797874814,0.37926274249758835,0,5.4673108528243777,0,43.776722751809643,0,-2.9659949421513288,0,182.25574504730145,2.8110274539568922,8.0436831029142617,1.3429371637966523,1.0864659852896925,0.87024478187091880,0.58813757958261115,-3081.2830096298562,-6.1662625408376243E-003,91.521873434284984,167.33117404228773,200.25267835044406,250.69259044749083,92.749048526692704,81.213666666666668,19.366666666666674,4.2106767461552339,20.348147440592470,0.19030514880438368
20220530143000,415.12661664944409,19.728597567694912,0.55924536967705696,0,28.613811227595576,0,74.050776576986678,0,-6.2224571354912737,0,186.20057766125882,3.2538782085503994,8.5429052880127632,1.5517024436694813,1.2347928312808154,0.96380671633418258,0.71512931553615044,-1058.4464138192404,-1.7950837899711365E-002,98.621273519079367,180.31114163481675,215.78638442872099,270.13894716087435,92.751286434895846,77.853333333333339,20.136666666666656,5.2067148319326479,21.048486930847218,0.18579853992706613
20220530150000,413.71432206766804,19.864945836598348,0.47313056794287928,0,16.110465155788951,0,77.832525045922566,0,-5.8924477053531099,0,189.94563053807519,3.2588608673333721,8.4071755819492218,1.4090525624478409,1.2429993955156469,0.93431990102031381,0.65798348328238621,-1464.6916453952199,-1.2972013638319894E-002,94.586774080922581,172.93478992426679,206.95877537770696,259.08782815120179,92.782871628472222,77.095333333333329,20.411999999999978,5.4773130042463434,21.359674127366759,0.17683422384896177
20220530153000,412.09366495507959,20.184943436204321,0.66687633324417617,0,98.512457281761513,0,168.10706352498084,0,-10.853604272693442,0,183.97041388114036,2.7971754417800399,8.8692957671656920,1.4386904878919275,1.3310443995706869,1.0282546788542819,0.78231635782478504,-402.65041202891945,-4.7187335297288531E-002,100.61906406386289,183.96373991329537,220.15761168144272,275.61120497258634,92.792057886284724,74.338333333333338,21.265333333333331,6.4673574017866873,22.146774929470439,0.26119822988163349
20220530160000,410.53387223520912,20.411195112435582,0.53994259995241856,0,94.407128456939432,0,130.00619844555337,0,-9.7427698210012981,0,193.07750299338826,2.8767708576250066,8.3316018875942959,1.3051823099248672,1.2580144258337578,0.92237854744104730,0.70454711101018352,-306.96232407554652,-6.1896846973714954E-002,100.93820460384516,184.54723060503770,220.85590101385620,276.48538035474149,92.811629958984369,72.709666666666664,21.812999999999988,7.1122006413682222,22.748284101698118,0.34182357798454927
20220530163000,409.78652552099800,20.567258334229535,0.58392828531529950,0,103.56319968595095,0,129.02470159388338,0,-7.4104753922934181,0,198.08234998586997,3.4580990685661304,9.2278594161813672,1.5305871934857660,1.3844160231337441,1.0566160619178913,0.73370475787989708,-316.04613460782718,-6.0117805343756436E-002,93.527257888288318,170.99765640877331,204.64052131046452,256.18564915304938,92.815452278768817,69.710000000000008,22.630999999999972,8.2969287039916910,23.467295350932091,0.34302343348894726
20220530170000,409.32389842225473,20.647278157123530,0.47635633751581602,0,132.65944052288248,0,105.63315890863747,0,-9.4956231511321629,0,202.95018315594092,3.0087447062478745,9.3420500776171789,1.6707609248818762,1.4612425050815481,0.96974800523938420,0.66339964028791165,-182.37385824365262,-0.10418159808088219,92.416170662983120,168.96623459782009,202.20942823512351,253.14220910672128,92.806888217664934,67.473333333333329,23.232333333333315,9.2398919415890699,24.063410458034923,0.33036658996214013
20220530173000,408.62575969333682,20.835946168583611,0.46851413172525069,0,108.71357380963420,0,151.77930820961001,0,-9.6803186512323958,0,185.66834222414272,2.6583509683758320,7.5789018142836690,1.3670292549180416,1.2888639718023844,0.86066108338370106,0.65839465441062073,-217.55056171742234,-8.7336019038549803E-002,101.05974638558672,184.76944774582438,221.12183817632817,276.81830212490468,92.804431899739583,66.457333333333338,23.634333333333302,9.7623213219153158,24.491439587063269,0.29823458620231796
20220530180000,408.30857450017032,20.836911029936051,0.36193896659688946,0,111.63516221695932,0,161.61729468569516,0,-11.896176740622685,0,167.68975388946768,2.5316008558731133,6.0779954413195787,1.0813272216808776,1.0552145811946365,0.72909167544684361,0.57900335509200707,-144.01676982369892,-0.13192908036514941,104.12956457274598,190.38205446024611,227.83869493373427,285.22700973395888,92.739987274522576,65.937666666666672,23.754000000000019,9.9852207032333418,24.623421739366336,0.34465461445850581
20220530183000,408.25643050269548,21.089730642519402,0.49490635443347186,0,96.536508553665243,0,142.16339708376844,0,-9.6430164035152863,0,150.23728864077580,3.1565155064673389,8.5058553045196952,1.5424846992121757,1.5382048311802345,0.86831131727444022,0.67794255298436723,-267.27802505332153,-7.1087026313553209E-002,102.72327243889575,187.81090392569595,224.76168442488716,281.37495770823216,92.704079403428835,64.222666666666669,24.387666666666689,10.894467071197109,25.222264302571602,0.31014053501245942
20220530190000,407.85755499606876,21.230667297037410,1.1147530101387528,0,183.94956062389363,0,187.60427634964253,0,-11.077038822385269,0,156.93353692019573,3.3485008587121285,10.632337591646609,1.9687800636187209,1.5389220371180721,1.0888396109356242,1.0184447931528655,-475.51759010871393,-3.9956460907484358E-002,118.69536606672180,217.01298511535268,259.70911729330197,325.12499664624204,92.692380405381954,62.673666666666669,24.905666666666662,11.723421663950889,25.651611950344545,0.36974635122110733
20220530193000,407.31086657715724,21.365957867540939,0.90746947296517255,0,246.41767667768525,0,166.45856769266084,0,-8.7960078150554235,0,156.48204859274946,3.7091735071715575,10.816230943165342,1.9855267105871528,1.6816216738393825,1.0717521550305680,0.91958429014556442,-261.30009148584423,-7.2713330837196860E-002,110.77777605446647,202.53710538713167,242.38518644989219,303.43749096271091,92.683286023654517,61.564333333333337,25.310666666666691,12.366463138283505,25.957853806389664,0.53063064575680996
20220530200000,406.97761062014229,21.381845762731629,1.0529195227838792,0,201.52717568715616,0,167.33763927061858,0,-9.0542484523914624,0,159.30087779272930,3.8816452373313708,12.317328349532870,2.0166767291758614,1.8580504235479043,1.1789041501592910,0.99055280626572806,-399.24484029169554,-4.7589844833356529E-002,108.93669838683874,199.17102822910249,238.35685179983321,298.39449400041622,92.654283930338536,61.917666666666669,25.221666666666692,12.188103792726102,25.967257152981233,0.34650978533171878
20220530203000,406.96252216121724,21.515870957371209,0.70919199181652981,0,164.06562103552645,0,92.077541244974000,0,-5.9412092088356285,0,162.00422384704126,3.8884399679981021,11.318139059893676,1.9370976661817370,1.7048368222184609,1.0987167050994531,0.81401388708469635,-272.09544638321535,-6.9828437971139995E-002,98.503524243737132,180.09585840528592,215.52874538707661,269.81641365329642,92.620390663632762,59.893333333333331,25.880999999999972,13.348120020610404,26.582544559970984,0.40799308936214224
20220530210000,406.85245709179293,21.551493982946013,1.0663025569876381,0,151.64012107197505,0,150.45868717603645,0,-7.8596374063505623,0,151.23598855215590,3.6222446467184053,11.785472639675852,2.0851325333144568,1.6290775508425148,1.1390668403081838,0.99860708732708281,-543.38954082447140,-3.4965707972906095E-002,112.70190258414115,206.05502235205870,246.59523456838008,308.70797162457410,92.588608945529529,59.354333333333336,26.055999999999983,13.668260267161861,26.837221333821617,0.36815509532583385
20220530213000,407.04541880657240,21.725063575958654,0.80009390451794316,0,143.00277773443148,0,178.21582990053307,0,-3.8655033662547029,0,151.82252293924316,2.9018584246507966,11.252503438159170,1.8987436548867205,1.4757115489425032,1.0532464952706417,0.86605553476541008,-375.78161904753415,-5.0561280906069574E-002,107.06991918932660,195.75796047736205,234.27228141066698,293.28109656593477,92.553409871744776,57.782333333333334,26.640666666666675,14.694983755772711,27.460532004462380,0.40266410421431958
20220530220000,407.44731304349875,21.525325796255366,0.86490598619973802,0,137.58541731212105,0,116.01803845768154,0,-2.8265424247534217,0,153.30875467680377,4.8316881497438580,12.116978932808674,1.9706826239611590,1.9180484258916588,1.2807315857720059,0.90125005642073797,-440.04856666997011,-4.3177052350791355E-002,94.528909418585457,172.82899486652704,206.83216571402721,258.92932787632401,92.524950361608632,55.696666666666665,27.103999999999985,15.846460501592926,27.764191315071969,0.27807023967748506
20220530223000,407.84034766777773,21.395182050738104,1.0596352706496976,0,101.88997248155782,0,107.08305430779272,0,-2.9104331845257296,1,154.32763842673702,4.6867392171775757,12.789780506480994,2.0952490412195455,1.9117421082210235,1.3407858503780075,0.99783575994790696,-806.28215259240233,-2.3564951721813717E-002,98.858636560807852,180.74511697815581,216.30574207584860,270.78912130585769,92.499012622178824,55.031666666666666,27.200666666666677,16.175722509194792,27.916285324944397,0.20695928841958058